Miscellaneous Local Product
Issued by NWS Hastings, NE

Home | Current Version | Previous Version | Graphics & Text | Print | Product List | Glossary On
Versions: 1 2 3 4 5 6 7 8 9 10 11 12 13 14 15 16 17 18 19 20 21 22 23 24 25 26 27 28 29 30 31 32 33 34 35 36 37 38 39 40 41 42 43 44 45 46 47 48 49 50
000
AXUS43 KGID 300402
MISGRI

GID CWA HOURLY WEATHER ROUNDUP
NATIONAL WEATHER SERVICE HASTINGS NE
1000 PM CST THU JAN 29 2015

NOTE: "FAIR" INDICATES FEW OR NO CLOUDS BELOW 12,000 FEET WITH NO
SIGNIFICANT WEATHER AND/OR OBSTRUCTIONS TO VISIBILITY.

...SOUTH CENTRAL NEBRASKA...

CITY           SKY/WX    TMP DP  RH WIND       PRES   REMARKS
GRAND ISLAND   CLEAR     24  18  77 CALM      30.51S
HASTINGS       PTCLDY    24  15  68 CALM      30.48F
KEARNEY        PTCLDY    25  16  68 NW5       30.49S WCI  19
ORD            CLEAR     21  16  81 CALM      30.48R
YORK           CLEAR     25  21  86 N3        30.51S
AURORA         CLEAR     29  22  74 NE5       30.50S WCI  24
LEXINGTON      PTCLDY    22  18  84 W5        30.48S WCI  16
HOLDREGE       PTCLDY    22  15  74 CALM      30.48S
HEBRON         FAIR      22  16  79 CALM      30.51S

...NEBRASKA PANHANDLE...

CITY           SKY/WX    TMP DP  RH WIND       PRES   REMARKS
CHADRON        CLEAR     32  18  56 SW9       30.37F WCI  24
ALLIANCE       CLEAR     26  17  68 S10       30.38F WCI  16
SCOTTSBLUFF    PTCLDY    29  22  75 E7        30.38F WCI  22
SIDNEY         PTCLDY    26  18  71 S6        30.41S WCI  19

...WESTERN AND NORTH CENTRAL NEBRASKA...

CITY           SKY/WX    TMP DP  RH WIND       PRES   REMARKS
VALENTINE      CLEAR     24  18  77 CALM      30.45S
AINSWORTH      CLEAR     24  19  80 S6        30.46S WCI  17
ONEILL         CLEAR     24  22  92 E6        30.50R WCI  17
BROKEN BOW     CLEAR     20  15  81 CALM      30.47S
IMPERIAL       PTCLDY    27  17  66 CALM      30.45F
NORTH PLATTE   PTCLDY    19  14  81 NE3       30.46S
MCCOOK         PTCLDY    24  17  74 SW5       30.48S WCI  18

...EASTERN NEBRASKA...

CITY           SKY/WX    TMP DP  RH WIND       PRES   REMARKS
NORFOLK        CLEAR     25  20  81 N3        30.51S
SO SIOUX CITY  CLOUDY    30  21  69 N9        30.54S WCI  22
TEKAMAH        PTCLDY    30  21  69 N9        30.55R WCI  22
COLUMBUS       CLEAR     23  16  74 NE5       30.53S WCI  17
ALBION         PTCLDY    22  18  87 CALM      30.50S
OMAHA EPPLEY   CLEAR     29  22  75 N12       30.54R WCI  19
OFFUTT AFB     CLEAR     30  22  73 N12       30.54R WCI  20
MILLARD        CLEAR     30  23  73 N5        30.54R WCI  25
LINCOLN        CLEAR     27  21  78 N5        30.55R WCI  22
NEBRASKA CITY  CLEAR     27  19  74 N6        30.53R WCI  20
BEATRICE       CLEAR     21  17  86 CALM      30.53R
FALLS CITY     CLEAR     25  19  78 NW3       30.53R

...NORTHERN KANSAS...

CITY           SKY/WX    TMP DP  RH WIND       PRES   REMARKS
GOODLAND       CLEAR     26  20  77 S10       30.47S WCI  16
HILL CITY      PTCLDY    22  15  75 W5        30.51S WCI  16
NORTON         CLEAR     19  12  73 SW7       30.49  WCI  10
PHILLIPSBURG   CLEAR     27  19  74 W7        30.51S WCI  19
SMITH CENTER   CLEAR     21  16  79 N3        30.51S
BELOIT         CLEAR     23  18  80 NW3       30.51S
HAYS           FAIR      27  14  59 NW6       30.51S WCI  20
RUSSELL        CLEAR     34  23  64 CALM      30.50S
CONCORDIA      CLEAR     29  22  75 CALM      30.51S
SALINA         CLEAR     31  22  69 CALM      30.52S
TOPEKA         CLEAR     25  22  88 CALM      30.54R



USA.gov is the U.S. government's official web portal to all federal, state and local government web resources and services.